Theta_e
332 330 329 329 330 329 328 328 331 331 332 332 332 332 332 331 330 331 332 331 330 330
331 328 329 329 330 328 329 329 330 330 332 332 333 333 333 332 331 331 331 331 331 328
330 329 330 329 328 329 329 330 330 330 332 333 333 333 333 330 331 331 332 329 331 330
330 329 329 329 328 328 329 329 328 329 330 332 332 332 330 330 329 329 330 330 328 328
331 330 329 328 328 328 328 329 328 330 329 330 331 329 328 326 327 327 327 326 326 326
331 330 330 328 328 328 328 329 329 330 330 330 330 331 331 328 328 328 328 328 326 327
330 330 329 328 329 328 329 329 330 331 330 331 330 329 330 328 329 330 329 328 329 328
330 330 329 329 329 329 330 330 331 331 331 332 331 329 329 327 329 330 329 329 329 331
329 328 329 329 329 329 329 331 331 330 330 331 329 305 313 323 327 330 330 330 327 326
328 327 327 328 328 328 329 331 331 330 331 331 329 302 305 313 328 329 328 331 328 327
327 326 327 328 328 329 329 330 330 330 331 330 326 301 303 309 328 328 328 331 330 329
327 326 327 327 328 327 328 328 327 328 329 330 323 301 303 318 326 327 328 332 331 328
328 327 328 329 328 327 328 327 325 327 331 319 322 299 303 320 327 325 326 329 329 311
327 329 330 331 328 326 326 325 326 325 326 329 326 317 300 308 325 326 327 326 328 328
Wind_Speed
5 3 2 1 2 2 3 4 5 4 3 3 4 4 5 5 5 5 4 5 4 3
5 4 3 4 3 3 5 5 5 4 2 4 4 4 5 4 5 5 5 4 4 3
5 5 5 5 5 5 6 5 4 4 2 3 4 4 4 4 4 4 3 2 5 5
6 6 5 5 5 5 6 5 4 3 3 2 5 5 4 4 4 4 4 3 5 5
6 6 6 5 5 5 6 5 4 4 4 4 5 5 4 4 4 5 5 6 6 7
6 6 6 6 6 5 6 6 5 4 5 5 5 6 5 6 5 6 6 7 7 8
6 6 6 6 6 6 6 6 6 5 5 6 6 6 7 7 6 6 7 7 7 9
7 6 7 7 6 6 7 6 6 6 6 6 5 5 7 7 7 7 8 7 8 8
8 8 9 8 7 7 7 6 6 7 7 7 5 7 9 7 7 7 7 8 8 10
9 9 9 9 8 7 6 5 5 5 5 6 6 5 8 6 6 7 6 9 9 8
9 9 9 9 8 6 5 6 5 5 5 5 5 4 7 5 7 6 6 9 12 9
11 10 9 9 7 5 6 6 4 4 6 7 5 4 8 8 6 6 7 9 10 9
12 11 10 9 8 5 6 6 4 5 6 8 8 4 5 7 7 8 5 9 10 4
10 11 11 10 7 7 7 7 6 7 5 7 9 6 3 7 5 6 9 7 8 5
Wind_Direction
140 139 133 143 100 124 157 161 138 141 156 123 174 192 172 183 187 190 216 216 177 143
146 142 139 99 113 145 140 137 133 128 125 145 131 150 165 162 177 195 212 199 158 137
153 156 134 122 141 147 136 136 135 132 117 81 90 97 125 131 167 186 182 170 166 157
158 162 140 135 145 147 140 134 147 151 153 122 102 96 101 118 146 167 142 125 104 128
158 162 151 147 151 158 144 142 157 167 155 139 113 96 99 86 122 127 118 113 113 114
155 161 157 150 159 152 148 146 155 168 155 136 116 106 96 99 100 113 122 128 125 129
154 149 148 148 157 156 146 147 151 151 142 129 118 109 112 107 99 103 108 106 123 134
135 128 132 137 145 142 134 134 140 143 139 129 120 122 117 112 105 107 110 116 112 122
133 135 135 136 136 133 129 134 135 141 145 140 119 126 128 125 119 108 115 110 105 109
141 140 142 141 137 134 133 137 135 135 144 140 124 155 133 130 119 110 116 118 120 108
148 145 145 149 142 141 140 143 132 129 137 130 115 129 136 140 106 110 125 126 124 124
157 153 156 152 146 139 143 141 147 115 129 130 119 127 139 132 115 113 135 132 129 117
170 167 168 158 149 136 136 136 137 119 125 122 130 164 145 148 141 134 122 110 121 85
175 178 173 159 152 146 137 129 125 116 115 134 139 158 149 127 118 127 125 128 149 125